[[{"header":{"parameterUnit":"m.s-1","parameterCategory":1,"la1":30.2991,"la2":30.254,"lo1":-89.0895,"lo2":-89.0444,"dy":0.0017,"dx":0.0017,"nx":28,"ny":28,"refTime":"2025-06-19T21:00:00:Z","depth":0,"parameterNumber":2,"parameterNumberName":"U-component_of_WINDS"},"data":[0,0,0,0,0,0,0,0,0,0,0,0,0,0,0,0,0,0,0,0,0,0,0,0,0,0,0,0,0,0,0,0,0,0,0,0,0,0,0,0,0,0,0,0,0,0,0,0,0,0,0,0,0,0,0,0,0,0,3.2719,3.2721,0,3.2967,3.2969,3.2972,3.3054,3.3053,3.3052,3.3051,3.3305,3.3312,3.332,0,0,0,0,0,0,0,0,0,0,0,0,0,3.2317,3.2324,3.2718,3.2721,3.2725,3.2966,3.2969,3.2973,3.3054,3.3053,3.3051,3.305,3.3302,3.3311,3.3321,0,0,0,0,0,0,0,0,0,0,0,0,0,3.2521,3.2327,3.2718,3.2794,3.2804,3.2965,3.297,3.2974,3.3054,3.3053,3.3051,3.305,3.3299,3.331,3.3322,3.3426,0,0,3.3357,3.3362,0,0,0,0,0,0,0,0,3.2509,3.2536,3.278,3.2789,3.28,3.2978,3.2921,3.3125,3.3055,3.2959,3.3051,3.3049,3.3197,3.3217,3.3267,3.3438,3.3449,3.3358,3.3366,3.3371,3.3374,0,0,0,0,0,0,0,3.2495,3.2525,3.2817,3.2783,3.2796,3.2817,3.2844,3.296,3.3084,3.2967,3.2974,3.3002,3.3202,3.3256,3.3274,3.3452,3.3358,3.3368,3.3376,3.338,3.3724,3.3726,0,0,0,0,0,0,3.2468,3.2513,3.2809,3.2824,3.2648,3.2825,3.2856,3.2922,3.3083,3.3106,3.3003,3.3005,3.3237,3.326,3.3283,3.3417,3.337,3.3381,3.3388,3.3722,3.3724,3.3726,0,0,0,0,0,0,3.2459,3.2494,3.2799,3.2671,3.2711,3.2834,3.2908,3.2928,3.2981,3.311,3.3133,3.3035,3.3236,3.3267,3.339,3.3427,3.3387,3.3397,3.3719,3.3722,3.3725,3.3684,0,0,0,0,0,0,3.2447,3.249,3.253,3.2671,3.2718,3.2901,3.291,3.2934,3.3001,3.3006,3.3146,3.3167,3.3237,3.3373,3.3402,3.3442,3.3406,3.3716,3.372,3.3724,3.3683,3.3686,3.3688,0,0,0,0,0,3.2433,3.2508,3.2531,3.2567,3.277,3.2903,3.293,3.3009,3.3004,3.3046,3.3129,3.3163,3.3418,3.3384,3.3418,3.3462,3.3714,3.3719,3.3724,3.3682,3.3685,3.3688,0,0,0,0,0,0,3.2367,3.2528,3.2555,3.2678,3.2777,3.2916,3.2971,3.3009,3.3111,3.3111,3.3204,3.3235,3.3352,3.342,3.338,3.3573,3.3568,3.358,3.3524,3.3529,3.3531,3.3512,3.3416,0,0,0,0,0,3.2367,3.2461,3.2597,3.2692,3.274,3.2847,3.2908,3.2961,3.3066,3.3108,3.32,3.3301,3.3405,3.347,3.3572,3.3693,3.3726,3.3741,3.3743,3.3745,3.3754,3.3825,3.3833,3.3742,3.3742,3.3742,0,0,3.2368,3.2467,3.2521,3.2682,3.2764,3.286,3.2881,3.2982,3.3055,3.3123,3.3246,3.3317,3.3437,3.356,3.3619,3.362,3.3786,3.3751,3.3751,3.376,3.3831,3.3839,3.3847,3.3746,3.3745,3.3744,0,0,3.2419,3.2503,3.2593,3.2675,3.28,3.2871,3.2892,3.3028,3.3078,3.3203,3.3257,3.3345,3.352,3.3604,3.3669,3.3754,3.379,3.3785,3.3798,3.3867,3.3874,3.3881,3.3912,3.3922,3.3794,3.3794,3.3794,0,3.2404,3.2551,3.2634,3.2733,3.2802,3.287,3.2962,3.3038,3.3189,3.3236,3.3236,3.3459,3.3544,3.3689,3.371,3.376,3.3789,3.3769,3.3866,3.3874,3.3881,3.3912,3.3924,3.3792,3.3792,3.3793,3.3793,0,3.2527,3.2628,3.2686,3.2831,3.2908,3.3002,3.3101,3.3169,3.3215,3.3287,3.3415,3.3519,3.3645,3.3683,3.3729,3.3835,3.3832,3.3847,3.3844,3.3887,3.3918,3.3931,3.379,3.3791,3.3791,3.3792,0,0,3.2542,3.2734,3.2753,3.2821,3.2965,3.3045,3.3144,3.3267,3.3324,3.3427,3.3513,3.3661,3.3677,3.3751,3.3807,3.3867,3.393,3.3876,3.388,3.3883,3.4055,3.4043,3.4055,3.3955,3.3957,3.3959,3.4046,0,3.2612,3.2791,3.287,3.3013,3.3109,3.3176,3.3262,3.336,3.343,3.3522,3.36,3.3704,3.3716,3.3762,3.3824,3.3909,3.3966,3.3904,3.4036,3.404,3.4004,3.4071,3.4058,3.4134,3.4058,3.406,3.4062,0,3.2716,3.282,3.2973,3.3108,3.3151,3.3227,3.3347,3.3434,3.3548,3.3595,3.3679,3.3733,3.3841,3.3831,3.3981,3.3937,3.3997,3.4047,3.4052,3.4067,3.4053,3.4089,3.416,3.4172,3.4081,3.408,3.4078,0,3.2713,3.2891,3.3007,3.3062,3.3221,3.3274,3.3343,3.3455,3.3524,3.363,3.3676,3.3793,3.3857,3.3946,3.4031,3.4016,3.4174,3.4171,3.4217,3.4215,3.4247,3.4243,3.4329,3.4284,3.4284,3.4284,3.4284,0,3.2783,3.2874,3.3007,3.3078,3.3183,3.3274,3.3376,3.3449,3.3549,3.3636,3.3701,3.3782,3.3889,3.3983,3.4051,3.4166,3.4194,3.4236,3.4253,3.423,3.4225,3.427,3.4267,3.4287,3.4286,3.4286,3.4285,0,3.2796,3.2889,3.3019,3.316,3.3198,3.3269,3.339,3.3462,3.3536,3.3646,3.3677,3.3794,3.3909,3.4002,3.4153,3.4198,3.4319,3.4338,3.428,3.4289,3.433,3.4325,3.4448,3.4469,3.4409,3.441,3.441,0,3.2834,3.2906,3.3055,3.3118,3.3187,3.3287,3.3359,3.3453,3.3525,3.3661,3.3717,3.3837,3.3937,3.4118,3.4217,3.4333,3.4355,3.4391,3.4373,3.4349,3.4357,3.4352,3.436,3.4392,3.4392,3.4392,3.4392,0,3.2893,3.2936,3.3037,3.3155,3.3239,3.3336,3.3435,3.3483,3.3595,3.3673,3.3792,3.387,3.4025,3.4143,3.427,3.4342,3.4386,3.4397,3.4414,3.4392,3.4356,3.4377,3.4285,3.4394,3.4394,3.4394,3.4393,3.4393,3.2921,3.2989,3.3104,3.3215,3.33,3.3391,3.3467,3.3551,3.3651,3.3784,3.3834,3.3956,3.407,3.4245,3.4318,3.4416,3.442,3.4444,3.445,3.4455,3.4453,3.434,3.4439,3.4439,3.4439,3.4439,3.4439,0,3.2983,3.3062,3.3163,3.33,3.3388,3.3422,3.3534,3.3605,3.3712,3.3815,3.3913,3.405,3.4167,3.4275,3.4397,3.4454,3.4477,3.4483,3.4479,3.4496,3.4441,3.4415,3.4462,3.4462,3.4462,3.4462,3.4462,3.4462,3.3026,3.3143,3.32,3.3361,3.3439,3.3559,3.362,3.3706,3.3788,3.3939,3.4036,3.4106,3.4212,3.4342,3.4451,3.448,3.4522,3.4522,3.4556,3.4503,3.4499,3.4496,3.4472,3.453,3.453,3.4603,3.4604,3.4604]},{"header":{"parameterUnit":"m.s-1","parameterCategory":1,"la1":30.2991,"la2":30.254,"lo1":-89.0895,"lo2":-89.0444,"dy":0.0017,"dx":0.0017,"nx":28,"ny":28,"refTime":"2025-06-19T21:00:00:Z","depth":0,"parameterNumber":3,"parameterNumberName":"V-component_of_WINDS"},"data":[0,0,0,0,0,0,0,0,0,0,0,0,0,0,0,0,0,0,0,0,0,0,0,0,0,0,0,0,0,0,0,0,0,0,0,0,0,0,0,0,0,0,0,0,0,0,0,0,0,0,0,0,0,0,0,0,0,0,0.5363,0.5362,0,0.5287,0.5287,0.5286,0.5258,0.5259,0.5259,0.5259,0.5181,0.5179,0.5176,0,0,0,0,0,0,0,0,0,0,0,0,0,0.5482,0.548,0.5363,0.5362,0.5361,0.5288,0.5287,0.5285,0.5258,0.5259,0.5259,0.5259,0.5182,0.5179,0.5176,0,0,0,0,0,0,0,0,0,0,0,0,0,0.542,0.5479,0.5364,0.5339,0.5336,0.5288,0.5286,0.5285,0.5258,0.5259,0.5259,0.5259,0.5183,0.5179,0.5176,0.5146,0,0,0.5165,0.5164,0,0,0,0,0,0,0,0,0.5424,0.5416,0.5344,0.5341,0.5337,0.5283,0.5299,0.5239,0.5258,0.5288,0.5259,0.526,0.5214,0.5208,0.5193,0.5143,0.5139,0.5165,0.5163,0.5161,0.516,0,0,0,0,0,0,0,0.5428,0.5419,0.5333,0.5342,0.5339,0.5331,0.5322,0.5288,0.525,0.5285,0.5283,0.5274,0.5213,0.5197,0.5191,0.5138,0.5165,0.5162,0.516,0.5158,0.5055,0.5055,0,0,0,0,0,0,0.5437,0.5423,0.5336,0.5331,0.5382,0.5328,0.5319,0.53,0.525,0.5243,0.5274,0.5273,0.5202,0.5195,0.5188,0.5148,0.5161,0.5158,0.5156,0.5056,0.5055,0.5054,0,0,0,0,0,0,0.544,0.5429,0.5339,0.5376,0.5364,0.5326,0.5304,0.5298,0.5282,0.5242,0.5235,0.5265,0.5202,0.5193,0.5156,0.5145,0.5156,0.5153,0.5057,0.5056,0.5055,0.507,0,0,0,0,0,0,0.5443,0.543,0.542,0.5376,0.5362,0.5309,0.5304,0.5296,0.5276,0.5274,0.5231,0.5224,0.5202,0.5161,0.5153,0.5141,0.515,0.5057,0.5056,0.5055,0.507,0.5069,0.5069,0,0,0,0,0,0.5447,0.5428,0.542,0.5409,0.5348,0.5309,0.53,0.5275,0.5275,0.5264,0.5237,0.5226,0.5148,0.5158,0.5148,0.5135,0.5058,0.5057,0.5055,0.507,0.5069,0.5069,0,0,0,0,0,0,0.5472,0.5422,0.5412,0.5378,0.5348,0.5304,0.5289,0.5276,0.5245,0.5244,0.5214,0.5204,0.5169,0.5148,0.516,0.5101,0.5102,0.5098,0.5117,0.5116,0.5115,0.5121,0.5148,0,0,0,0,0,0.5474,0.5446,0.5403,0.5377,0.5362,0.5328,0.531,0.5293,0.526,0.5247,0.5218,0.5186,0.5154,0.5133,0.5102,0.5066,0.5055,0.5052,0.5051,0.5051,0.5048,0.5025,0.5022,0.505,0.505,0.505,0,0,0.5477,0.5446,0.543,0.5381,0.5356,0.5326,0.5318,0.5288,0.5265,0.5242,0.5205,0.5182,0.5144,0.5107,0.5089,0.5088,0.5038,0.5049,0.5049,0.5047,0.5023,0.502,0.5018,0.5049,0.5049,0.5049,0,0,0.5467,0.5442,0.5416,0.539,0.535,0.5327,0.5321,0.5278,0.5261,0.5223,0.5204,0.5176,0.5123,0.5095,0.5075,0.505,0.5037,0.504,0.5038,0.5015,0.5013,0.5011,0.5,0.4997,0.5038,0.5038,0.5038,0,0.5476,0.5432,0.5404,0.5375,0.5352,0.5329,0.5301,0.5277,0.523,0.5214,0.5214,0.5143,0.5116,0.5071,0.5064,0.5049,0.5039,0.5046,0.5015,0.5013,0.5011,0.5,0.4996,0.5038,0.5038,0.5038,0.5038,0,0.5444,0.5413,0.5397,0.535,0.5326,0.5298,0.5264,0.5243,0.5226,0.5203,0.5162,0.5128,0.5088,0.5076,0.5061,0.5027,0.5027,0.5021,0.5021,0.5009,0.4999,0.4995,0.5039,0.5039,0.5039,0.5039,0,0,0.5451,0.5386,0.5381,0.5358,0.5311,0.5286,0.5255,0.5215,0.5196,0.5163,0.5135,0.5088,0.5081,0.5058,0.5038,0.5018,0.4998,0.5014,0.5013,0.5012,0.4956,0.4961,0.4957,0.4989,0.4988,0.4988,0.4959,0,0.5434,0.5379,0.5351,0.5307,0.5277,0.5251,0.5224,0.5191,0.5167,0.5137,0.511,0.5076,0.507,0.5055,0.5035,0.5005,0.4987,0.5007,0.4962,0.496,0.4972,0.4952,0.4958,0.4933,0.4955,0.4954,0.4954,0,0.5409,0.5375,0.5327,0.528,0.5266,0.5243,0.5202,0.5174,0.5135,0.5118,0.5089,0.507,0.5034,0.5035,0.4985,0.4999,0.4978,0.496,0.4959,0.4954,0.4957,0.4946,0.4924,0.492,0.4948,0.4948,0.4949,0,0.5417,0.5359,0.5322,0.5304,0.5249,0.5232,0.5208,0.5169,0.5146,0.5109,0.5093,0.5054,0.5032,0.5001,0.497,0.4974,0.4921,0.4921,0.4905,0.4906,0.4896,0.4897,0.487,0.4883,0.4883,0.4883,0.4883,0,0.5402,0.5374,0.5325,0.5302,0.5269,0.5236,0.5203,0.5177,0.5142,0.5112,0.5088,0.5061,0.5022,0.4989,0.4964,0.4924,0.4915,0.49,0.4893,0.4902,0.4904,0.4888,0.4889,0.4882,0.4882,0.4882,0.4883,0,0.5406,0.5373,0.5331,0.5281,0.5267,0.5244,0.5201,0.5177,0.515,0.5113,0.5102,0.506,0.502,0.4985,0.4933,0.4916,0.4874,0.4867,0.4887,0.4884,0.487,0.4871,0.4832,0.4825,0.4843,0.4843,0.4843,0,0.5399,0.5376,0.5323,0.5301,0.5277,0.5243,0.5218,0.5183,0.5158,0.511,0.5091,0.5049,0.5013,0.4949,0.4913,0.4872,0.4863,0.4852,0.4857,0.4865,0.4861,0.4863,0.486,0.4852,0.4852,0.4852,0.4852,0,0.5389,0.5372,0.5338,0.5296,0.5267,0.5233,0.5197,0.5181,0.5139,0.5112,0.507,0.5042,0.4986,0.4944,0.4898,0.4872,0.4854,0.485,0.4844,0.4853,0.4865,0.4857,0.4886,0.4852,0.4852,0.4852,0.4852,0.4852,0.5387,0.5364,0.5322,0.5283,0.5252,0.5219,0.5193,0.5162,0.5126,0.5079,0.506,0.5016,0.4974,0.491,0.4883,0.4847,0.4845,0.4837,0.4835,0.4833,0.4833,0.487,0.4839,0.4839,0.4839,0.4839,0.4839,0,0.5374,0.5345,0.531,0.526,0.5229,0.5214,0.5173,0.5148,0.511,0.5072,0.5036,0.4986,0.4944,0.4903,0.4858,0.4837,0.4827,0.4826,0.4827,0.4821,0.4839,0.4848,0.4834,0.4834,0.4834,0.4834,0.4834,0.4834,0.5364,0.5325,0.5302,0.5246,0.5216,0.5173,0.5151,0.5119,0.5088,0.5033,0.4998,0.4971,0.4931,0.4882,0.4841,0.483,0.4814,0.4815,0.4802,0.4819,0.482,0.4821,0.483,0.4812,0.4812,0.4787,0.4786,0.4786]}]]